FW8534 Weather Reports


Display with metric or nautical units.
time (UTC)temp
F
wind
direction
speed
MPH
gust
MPH
rain 1hr
in
rain 24hr
in
rain mn
in
humidity
%
barometer
mb
20220118072023 39 197 12.0 0.0 0.00 0.00 0.00 76 999.0
20220118071523 39 198 13.0 0.0 0.00 0.00 0.00 76 999.1
20220118071021 39 202 13.0 0.0 0.00 0.00 0.00 76 999.1
20220118070521 39 200 13.0 0.0 0.00 0.00 0.00 75 998.9
20220118070054 40 192 12.0 0.0 0.00 0.00 0.00 75 999.0
20220118065519 40 202 13.0 0.0 0.00 0.00 0.00 75 999.1
20220118065019 39 196 13.0 0.0 0.00 0.00 0.00 76 999.1
20220118064521 39 192 12.0 0.0 0.00 0.00 0.00 77 999.1
20220118064019 39 187 11.0 0.0 0.00 0.00 0.00 78 999.1
20220118063520 38 190 11.0 0.0 0.00 0.00 0.00 78 999.2
20220118063020 38 191 10.0 0.0 0.00 0.00 0.00 78 999.2
20220118062016 38 191 9.0 0.0 0.00 0.00 0.00 78 999.1
20220118061529 38 188 10.0 0.0 0.00 0.00 0.00 77 999.1
20220118061015 38 190 11.0 0.0 0.00 0.00 0.00 77 999.2
20220118060527 38 196 11.0 0.0 0.00 0.00 0.00 77 999.2
20220118060029 38 192 11.0 0.0 0.00 0.00 0.00 77 999.2
20220118055514 38 194 10.0 0.0 0.00 0.00 0.00 76 999.3
20220118055014 39 196 10.0 0.0 0.00 0.00 0.00 76 999.3
20220118054517 39 201 11.0 0.0 0.00 0.00 0.00 76 999.3
20220118054017 39 202 11.0 0.0 0.00 0.00 0.00 76 999.3
20220118053519 39 197 11.0 0.0 0.00 0.00 0.00 76 999.4
20220118053119 39 192 12.0 0.0 0.00 0.00 0.00 76 999.4
20220118052016 39 192 13.0 0.0 0.00 0.00 0.00 77 999.5
20220118051527 39 194 12.0 0.0 0.00 0.00 0.00 78 999.6
20220118051013 38 194 11.0 0.0 0.00 0.00 0.00 78 999.6
20220118050514 38 190 11.0 0.0 0.00 0.00 0.00 79 999.6
20220118050014 38 189 11.0 0.0 0.00 0.00 0.00 80 999.7
20220118045511 37 189 11.0 0.0 0.00 0.00 0.00 80 999.7
20220118045024 37 193 10.0 0.0 0.00 0.00 0.00 80 999.9
20220118044533 37 176 10.0 0.0 0.00 0.00 0.00 80 999.8
20220118044011 37 184 10.0 0.0 0.00 0.00 0.00 80 999.9
20220118043518 37 192 10.0 0.0 0.00 0.00 0.00 81 1000.0
20220118043031 37 188 11.0 0.0 0.00 0.00 0.00 80 999.9
20220118042014 37 181 11.0 0.0 0.00 0.00 0.00 80 999.8
20220118041517 37 182 11.0 0.0 0.00 0.00 0.00 79 999.7
20220118041018 37 184 11.0 0.0 0.00 0.00 0.00 80 999.7
20220118040513 38 186 10.0 0.0 0.00 0.00 0.00 80 999.8
20220118040013 38 186 10.0 0.0 0.00 0.00 0.00 80 999.8
20220118035526 38 196 10.0 0.0 0.00 0.00 0.00 81 1000.0
20220118035015 37 195 11.0 0.0 0.00 0.00 0.00 82 1000.1
20220118034515 37 190 11.0 0.0 0.00 0.00 0.00 82 1000.3
20220118034010 37 193 10.0 0.0 0.00 0.00 0.00 83 1000.3
20220118033510 37 190 10.0 0.0 0.00 0.00 0.00 83 1000.4
20220118033010 37 185 10.0 0.0 0.00 0.00 0.00 83 1000.5
20220118032003 37 184 11.0 0.0 0.00 0.00 0.00 82 1000.6
20220118031522 37 180 11.0 0.0 0.00 0.00 0.00 82 1000.6
20220118031004 37 192 10.0 0.0 0.00 0.00 0.00 82 1000.8
20220118030502 37 192 12.0 0.0 0.00 0.00 0.00 82 1000.9
20220118030010 37 185 12.0 0.0 0.00 0.00 0.00 82 1000.9
20220118025505 37 189 10.0 0.0 0.00 0.00 0.00 82 1001.0
20220118025002 37 187 10.0 0.0 0.00 0.00 0.00 82 1000.8
20220118024505 37 188 11.0 0.0 0.00 0.00 0.00 81 1000.9
20220118024001 38 184 11.0 0.0 0.00 0.00 0.00 81 1001.1
20220118023600 38 189 12.0 0.0 0.00 0.00 0.00 82 1001.1
20220118023155 38 197 13.0 0.0 0.00 0.00 0.00 83 1001.2
20220118022620 37 192 12.0 0.0 0.00 0.00 0.00 84 1001.3
20220118022059 37 188 11.0 0.0 0.00 0.00 0.00 84 1001.3
20220118021622 37 190 11.0 0.0 0.00 0.00 0.00 83 1001.4
20220118021057 37 192 11.0 0.0 0.00 0.00 0.00 83 1001.4
20220118020558 37 188 12.0 0.0 0.00 0.00 0.00 83 1001.5
20220118020131 37 190 12.0 0.0 0.00 0.00 0.00 83 1001.6
20220118015622 37 186 11.0 0.0 0.00 0.00 0.00 84 1001.7
20220118015105 37 192 11.0 0.0 0.00 0.00 0.00 84 1001.6
20220118014710 37 186 10.0 0.0 0.00 0.00 0.00 84 1001.7
20220118014056 37 190 10.0 0.0 0.00 0.00 0.00 84 1001.7
20220118013555 37 192 10.0 0.0 0.00 0.00 0.00 84 1001.7
20220118013138 37 196 10.0 0.0 0.00 0.00 0.00 85 1001.9
20220118012556 36 194 9.0 0.0 0.00 0.00 0.00 85 1002.1
20220118012054 36 190 10.0 0.0 0.00 0.00 0.00 85 1002.1
20220118011651 36 191 9.0 0.0 0.00 0.00 0.00 85 1002.1
20220118011057 36 191 9.0 0.0 0.00 0.00 0.00 85 1002.2
20220118010552 36 192 10.0 0.0 0.00 0.00 0.00 85 1002.2
20220118010053 37 190 10.0 0.0 0.00 0.00 0.00 85 1002.3
20220118005551 37 190 10.0 0.0 0.00 0.00 0.00 85 1002.5
20220118005052 37 188 9.0 0.0 0.00 0.00 0.00 85 1002.4
20220118004609 37 200 9.0 0.0 0.00 0.00 0.00 85 1002.5
20220118004101 37 190 9.0 0.0 0.00 0.00 0.00 85 1002.4
20220118003558 37 191 10.0 0.0 0.00 0.00 0.00 85 1002.5
20220118003122 37 188 9.0 0.0 0.00 0.00 0.00 85 1002.6
20220118002549 37 188 8.0 0.0 0.00 0.00 0.00 85 1002.6
20220118002051 36 187 8.0 0.0 0.00 0.00 0.00 85 1002.7
20220118001605 36 188 9.0 0.0 0.00 0.00 0.00 84 1002.8
20220118001049 37 187 9.0 0.0 0.00 0.00 0.00 84 1002.7
20220118000549 37 192 8.0 0.0 0.00 0.00 0.00 84 1002.9
20220118000114 37 190 8.0 0.0 0.00 0.00 0.00 84 1002.9
20220117235547 37 193 8.0 0.0 0.00 0.00 0.00 84 1003.1
20220117235046 37 200 7.0 0.0 0.00 0.00 0.00 83 1003.2
20220117234707 37 199 7.0 0.0 0.00 0.00 0.00 83 1003.2
20220117234046 37 201 7.0 0.0 0.00 0.00 0.00 83 1003.3
20220117233546 37 200 7.0 0.0 0.00 0.00 0.00 83 1003.3
20220117233100 37 195 7.0 0.0 0.00 0.00 0.00 83 1003.4
20220117232551 38 190 7.0 0.0 0.00 0.00 0.00 82 1003.4
20220117232045 38 188 7.0 0.0 0.00 0.00 0.00 82 1003.4
20220117231619 38 184 7.0 0.0 0.00 0.00 0.00 81 1003.5
20220117231049 38 184 7.0 0.0 0.00 0.00 0.00 81 1003.6
20220117230556 38 183 7.0 0.0 0.00 0.00 0.00 81 1003.6
20220117230049 39 187 7.0 0.0 0.00 0.00 0.00 81 1003.7
20220117225542 39 183 7.0 0.0 0.00 0.00 0.00 80 1003.8
20220117225043 39 183 6.0 0.0 0.00 0.00 0.00 80 1003.9
20220117224605 40 184 6.0 0.0 0.00 0.00 0.00 79 1003.9
20220117224043 40 185 6.0 0.0 0.00 0.00 0.00 78 1004.0
20220117223550 40 188 6.0 0.0 0.00 0.00 0.00 77 1004.1
20220117223130 41 190 5.0 0.0 0.00 0.00 0.00 77 1004.1
20220117222539 41 190 6.0 0.0 0.00 0.00 0.00 76 1004.3
20220117222039 42 190 6.0 0.0 0.00 0.00 0.00 76 1004.4
20220117221641 42 201 6.0 0.0 0.00 0.00 0.00 76 1004.5
20220117221039 42 196 7.0 0.0 0.00 0.00 0.00 76 1004.6
20220117220554 42 187 9.0 0.0 0.00 0.00 0.00 76 1004.5
20220117220111 42 189 10.0 0.0 0.00 0.00 0.00 76 1004.5
20220117215538 42 186 10.0 0.0 0.00 0.00 0.00 76 1004.5
20220117215037 42 188 9.0 0.0 0.00 0.00 0.00 75 1004.5
20220117214642 42 192 8.0 0.0 0.00 0.00 0.00 75 1004.8
20220117214039 43 202 8.0 0.0 0.00 0.00 0.00 75 1005.0
20220117213541 43 192 9.0 0.0 0.00 0.00 0.00 75 1005.1
20220117213131 43 190 9.0 0.0 0.00 0.00 0.00 74 1004.9
20220117212536 43 190 8.0 0.0 0.00 0.00 0.00 75 1004.8
20220117212037 43 189 8.0 0.0 0.00 0.00 0.00 75 1004.9
20220117211617 43 194 8.0 0.0 0.00 0.00 0.00 74 1004.9
20220117211118 43 207 8.0 0.0 0.00 0.00 0.00 74 1004.9
20220117210540 43 202 8.0 0.0 0.00 0.00 0.00 74 1005.0
20220117210106 43 196 7.0 0.0 0.00 0.00 0.00 73 1004.9
20220117205551 43 193 7.0 0.0 0.00 0.00 0.00 73 1004.9
20220117205037 43 196 7.0 0.0 0.00 0.00 0.00 73 1004.9
20220117204604 43 196 7.0 0.0 0.00 0.00 0.00 77 1004.7
20220117204038 43 190 6.0 0.0 0.00 0.00 0.00 72 1004.6
20220117203604 43 191 5.0 0.0 0.00 0.00 0.00 72 1004.8
20220117203225 43 203 6.0 0.0 0.00 0.00 0.00 73 1005.0
20220117202609 43 198 7.0 0.0 0.00 0.00 0.00 73 1005.0
20220117202031 43 197 7.0 0.0 0.00 0.00 0.00 73 1005.0
20220117201541 43 186 8.0 0.0 0.00 0.00 0.00 73 1005.0
20220117201033 43 191 8.0 0.0 0.00 0.00 0.00 74 1005.1
20220117200538 43 188 8.0 0.0 0.00 0.00 0.00 74 1005.2
20220117200102 42 188 9.0 0.0 0.00 0.00 0.00 74 1005.2
20220117195528 42 184 10.0 0.0 0.00 0.00 0.00 74 1005.3
20220117195027 42 182 10.0 0.0 0.00 0.00 0.00 74 1005.5
20220117194631 42 185 10.0 0.0 0.00 0.00 0.00 74 1005.4
20220117194034 42 182 10.0 0.0 0.00 0.00 0.00 73 1005.5
20220117193543 42 177 10.0 0.0 0.00 0.00 0.00 73 1005.4
20220117193044 42 188 10.0 0.0 0.00 0.00 0.00 73 1005.8
20220117192523 42 191 10.0 0.0 0.00 0.00 0.00 74 1006.2
20220117192045 42 190 10.0 0.0 0.00 0.00 0.00 74 1006.2
20220117191554 42 190 11.0 0.0 0.00 0.00 0.00 73 1006.8
20220117191022 42 198 10.0 0.0 0.00 0.00 0.00 74 1006.7
20220117190536 41 190 10.0 0.0 0.00 0.00 0.00 75 1006.4
20220117190043 41 180 11.0 0.0 0.00 0.00 0.00 75 1006.6
20220117185519 41 182 12.0 0.0 0.00 0.00 0.00 75 1006.7
20220117185026 41 193 12.0 0.0 0.00 0.00 0.00 75 1006.6
20220117184529 41 176 10.0 0.0 0.00 0.00 0.00 75 1006.6
20220117184027 41 177 8.0 0.0 0.00 0.00 0.00 75 1006.9
20220117183535 41 180 7.0 0.0 0.00 0.00 0.00 76 1006.8
20220117183037 40 169 7.0 0.0 0.00 0.00 0.00 76 1006.9
20220117182522 40 136 6.0 0.0 0.00 0.00 0.00 76 1007.5
20220117182016 40 168 6.0 0.0 0.00 0.00 0.00 76 1007.5
20220117181525 40 178 7.0 0.0 0.00 0.00 0.00 77 1007.8
20220117181016 40 162 8.0 0.0 0.00 0.00 0.00 78 1007.9
20220117180533 39 172 9.0 0.0 0.00 0.00 0.00 78 1007.7
20220117180028 39 178 9.0 0.0 0.00 0.00 0.00 78 1007.8
20220117175510 38 165 9.0 0.0 0.00 0.00 0.00 79 1007.9
20220117175012 38 180 8.0 0.0 0.00 0.00 0.00 78 1008.0
20220117174540 38 165 7.0 0.0 0.00 0.00 0.00 79 1008.0
20220117174008 38 175 7.0 0.0 0.00 0.00 0.00 80 1008.1
20220117173507 37 158 7.0 0.0 0.00 0.00 0.00 80 1007.9
20220117173013 37 150 6.0 0.0 0.00 0.00 0.00 79 1008.1
20220117172507 37 140 6.0 0.0 0.00 0.00 0.00 80 1008.0
20220117172005 37 140 6.0 0.0 0.00 0.00 0.00 80 1008.0
20220117171505 36 138 6.0 0.0 0.00 0.00 0.00 81 1008.1
20220117171004 36 149 7.0 0.0 0.00 0.00 0.00 82 1008.0
20220117170504 35 155 8.0 0.0 0.00 0.00 0.00 82 1008.0
20220117170004 35 150 8.0 0.0 0.00 0.00 0.00 83 1008.1
20220117165508 35 148 7.0 0.0 0.00 0.00 0.00 83 1008.2
20220117165014 34 151 7.0 0.0 0.00 0.00 0.00 84 1008.1
20220117164504 34 167 7.0 0.0 0.00 0.00 0.00 86 1008.3
20220117164007 33 172 7.0 0.0 0.00 0.00 0.00 86 1008.3
20220117163503 33 150 8.0 0.0 0.00 0.00 0.00 86 1008.3
20220117163018 32 155 9.0 0.0 0.00 0.00 0.00 92 1008.4
20220117162503 31 165 10.0 0.0 0.00 0.00 0.00 86 1008.4
20220117162011 31 163 10.0 0.0 0.00 0.00 0.00 86 1008.4
20220117161504 31 170 9.0 0.0 0.00 0.00 0.00 85 1008.3
20220117161004 31 165 9.0 0.0 0.00 0.00 0.00 85 1008.3
20220117160506 31 170 8.0 0.0 0.00 0.00 0.00 84 1008.5
20220117160008 31 159 8.0 0.0 0.00 0.00 0.00 84 1008.3
20220117155501 32 167 9.0 0.0 0.00 0.00 0.00 85 1008.3
20220117155101 32 173 9.0 0.0 0.00 0.00 0.00 86 1008.1
20220117154629 32 185 8.0 0.0 0.00 0.00 0.00 86 1008.1
20220117154505 32 192 8.0 0.0 0.00 0.00 0.00 86 1008.1
20220117154102 31 198 9.0 0.0 0.00 0.00 0.00 86 1008.0
20220117153610 31 198 8.0 0.0 0.00 0.00 0.00 86 1007.8
20220117153122 31 196 8.0 0.0 0.00 0.00 0.00 86 1007.8
20220117152559 30 209 9.0 0.0 0.00 0.00 0.00 86 1007.9
20220117151759 30 217 9.0 0.0 0.00 0.00 0.00 86 1007.9
20220117151059 30 215 9.0 0.0 0.00 0.00 0.00 86 1007.9
20220117150607 30 212 9.0 0.0 0.00 0.00 0.00 92 1007.8
20220117150200 30 214 10.0 0.0 0.00 0.00 0.00 86 1007.8
20220117145558 30 213 9.0 0.0 0.00 0.00 0.00 86 1007.9
20220117145058 30 218 9.0 0.0 0.00 0.00 0.00 86 1007.6
20220117144613 30 209 9.0 0.0 0.00 0.00 0.00 86 1007.3
20220117144056 30 209 8.0 0.0 0.00 0.00 0.00 85 1007.2
20220117143556 30 213 8.0 0.0 0.00 0.00 0.00 85 1007.2
20220117143218 30 210 8.0 0.0 0.00 0.00 0.00 85 1007.3
20220117142555 30 215 7.0 0.0 0.00 0.00 0.00 84 1007.4
20220117141643 31 212 8.0 0.0 0.00 0.00 0.00 84 1007.4
20220117141103 31 207 8.0 0.0 0.00 0.00 0.00 84 1007.6
20220117140552 31 209 8.0 0.0 0.00 0.00 0.00 84 1007.7
20220117140121 31 199 8.0 0.0 0.00 0.00 0.00 84 1007.8
20220117135555 31 198 8.0 0.0 0.00 0.00 0.00 84 1007.9
20220117135057 31 200 8.0 0.0 0.00 0.00 0.00 83 1007.9
20220117134649 32 198 9.0 0.0 0.00 0.00 0.00 83 1007.9
20220117134106 32 202 9.0 0.0 0.00 0.00 0.00 83 1007.8
20220117133550 32 196 9.0 0.0 0.00 0.00 0.00 83 1007.8
20220117133128 32 199 9.0 0.0 0.00 0.00 0.00 83 1007.8
20220117132557 32 198 10.0 0.0 0.00 0.00 0.00 83 1007.9
20220117131601 32 198 9.0 0.0 0.00 0.00 0.00 83 1008.0
20220117131048 32 200 9.0 0.0 0.00 0.00 0.00 83 1008.0
20220117130546 32 202 9.0 0.0 0.00 0.00 0.00 83 1008.0
20220117130205 32 197 9.0 0.0 0.00 0.00 0.00 83 1008.0
20220117125555 32 203 10.0 0.0 0.00 0.00 0.00 83 1008.0
20220117125051 32 202 10.0 0.0 0.00 0.00 0.00 83 1008.1
20220117124625 32 206 10.0 0.0 0.00 0.00 0.00 83 1007.9
20220117124045 32 205 10.0 0.0 0.00 0.00 0.00 83 1007.9
20220117123606 32 206 10.0 0.0 0.00 0.00 0.00 82 1007.8
20220117123139 33 202 9.0 0.0 0.00 0.00 0.00 82 1007.7
20220117122622 33 213 10.0 0.0 0.00 0.00 0.00 82 1007.7
20220117121557 33 207 11.0 0.0 0.00 0.00 0.00 82 1007.7
20220117121040 33 202 10.0 0.0 0.00 0.00 0.00 82 1007.7
20220117120542 33 207 10.0 0.0 0.00 0.00 0.00 82 1007.7
20220117120058 33 203 10.0 0.0 0.00 0.00 0.00 82 1007.7
20220117115541 33 207 10.0 0.0 0.00 0.00 0.00 82 1007.6
20220117115043 33 205 11.0 0.0 0.00 0.00 0.00 82 1007.6
20220117114557 33 202 11.0 0.0 0.00 0.00 0.00 82 1007.6
20220117114039 33 202 10.0 0.0 0.00 0.00 0.00 82 1007.5
20220117113547 33 205 10.0 0.0 0.00 0.00 0.00 82 1007.5
20220117113104 33 202 10.0 0.0 0.00 0.00 0.00 82 1007.3
20220117112546 33 207 10.0 0.0 0.00 0.00 0.00 82 1007.3
20220117111546 34 206 10.0 0.0 0.00 0.00 0.00 82 1007.4
20220117111039 33 207 10.0 0.0 0.00 0.00 0.00 83 1007.5
20220117110541 33 205 9.0 0.0 0.00 0.00 0.00 83 1007.3
20220117110122 33 203 8.0 0.0 0.00 0.00 0.00 82 1007.4
20220117105538 34 206 8.0 0.0 0.00 0.00 0.00 82 1007.5
20220117105037 34 205 9.0 0.0 0.00 0.00 0.00 82 1007.3
20220117104611 34 202 11.0 0.0 0.00 0.00 0.00 82 1007.3
20220117104037 34 198 14.0 0.0 0.00 0.00 0.00 82 1007.3
20220117103544 34 195 16.0 0.0 0.00 0.00 0.00 82 1007.2
20220117103106 34 192 17.0 0.0 0.00 0.00 0.00 82 1007.3
20220117102551 34 194 18.0 0.0 0.00 0.00 0.00 82 1007.4
20220117101635 35 200 15.0 0.0 0.00 0.00 0.00 81 1007.4
20220117101048 35 195 11.0 0.0 0.00 0.00 0.00 81 1007.3
20220117100531 35 196 10.0 0.0 0.00 0.00 0.00 81 1007.6
20220117100134 35 193 10.0 0.0 0.00 0.00 0.00 81 1007.5
20220117095529 35 192 9.0 0.0 0.00 0.00 0.00 81 1007.5
20220117095029 34 194 8.0 0.0 0.00 0.00 0.00 81 1007.6
20220117094544 34 189 6.0 0.0 0.00 0.00 0.00 81 1007.7
20220117094025 35 176 5.0 0.0 0.00 0.00 0.00 80 1007.9
20220117093525 35 184 6.0 0.0 0.00 0.00 0.00 80 1007.9
20220117093026 35 188 6.0 0.0 0.00 0.00 0.00 80 1007.9
20220117092613 35 177 6.0 0.0 0.00 0.00 0.00 80 1007.8
20220117091609 36 185 6.0 0.0 0.00 0.00 0.00 80 1007.9
20220117091022 36 187 7.0 0.0 0.00 0.00 0.00 80 1007.9
20220117090521 36 182 8.0 0.0 0.00 0.00 0.00 80 1007.9
20220117090023 36 193 9.0 0.0 0.00 0.00 0.00 80 1007.9
20220117085532 37 190 9.0 0.0 0.00 0.00 0.00 80 1007.7
20220117085021 37 186 9.0 0.0 0.00 0.00 0.00 80 1007.7
20220117084625 37 186 9.0 0.0 0.00 0.00 0.00 80 1007.8
20220117084030 37 189 9.0 0.0 0.00 0.00 0.00 80 1007.8
20220117083520 37 187 9.0 0.0 0.00 0.00 0.00 80 1007.9
20220117083027 37 184 9.0 0.0 0.00 0.00 0.00 80 1007.9
20220117082529 37 172 9.0 0.0 0.00 0.00 0.00 80 1007.8
20220117081521 37 169 9.0 0.0 0.00 0.00 0.00 80 1008.0
20220117081018 37 171 9.0 0.0 0.00 0.00 0.00 80 1008.2
20220117080525 37 178 10.0 0.0 0.00 0.00 0.00 80 1008.3
20220117080102 37 173 9.0 0.0 0.00 0.00 0.00 80 1008.3
20220117075517 37 178 9.0 0.0 0.00 0.00 0.00 81 1008.4
20220117075030 37 171 8.0 0.0 0.00 0.00 0.00 81 1008.5
20220117074520 37 178 8.0 0.0 0.00 0.00 0.00 81 1008.6
20220117074015 37 172 8.0 0.0 0.00 0.00 0.00 81 1008.6
20220117073521 37 174 8.0 0.0 0.00 0.00 0.00 81 1008.7
20220117073017 37 176 8.0 0.0 0.00 0.00 0.00 81 1008.8
20220117072517 37 179 9.0 0.0 0.00 0.00 0.00 81 1008.9